Home > Weather > Langevåg > Past weeks

Flag for Norway Weather for the Past 2 Weeks in Langevåg, Norway

Now
43 °F

Light rain. Fog.


Feels Like: 39 °F
Forecast: 41 / 50 °F
Wind: 7 mph from West

Location: Alesund / Vigra

Current Time: Apr 30, 2016 at 5:44:54 AM

Latest Report: Apr 30, 2016 at 4:50 AM


Visibility: N/A

Pressure: 29.89 "Hg

Humidity: 87%

Dew Point: 39 °F

Location of LangevågLocation

Historic Weather in Langevåg — Graph

°F

Langevåg Temperature Yesterday

Maximum temperature yesterday: 46 °F (at 4:20 PM)
Minimum temperature yesterday: 39 °F (at 11:20 AM)
Average temperature yesterday: 43 °F

High & Low Weather Summary for the Past Weeks

 TemperatureHumidityPressure
High52 °F (Apr 28, 1:20 PM)100% (Apr 15, 4:50 AM)30.30 "Hg (Apr 15, 4:50 AM)
Low25 °F (Apr 24, 3:20 AM)32% (Apr 28, 12:50 PM)29.27 "Hg (Apr 18, 10:50 AM)
Average40 °F76%29.78 "Hg
* Reported Apr 15 4:20 AM — Apr 30 4:20 AM, Langevåg, Weather by CustomWeather, © 2016

Note: Actual official high and low records may vary slightly from our data, if they occured in-between our weather recording intervals... More about our weather records

Advertising

Langevåg Weather History for the Previous 24 Hours

Scroll right to see more
 ConditionsComfort  
Time TempWeatherWind HumidityBarometerVisibility
4:20 AM
Sat, Apr 30
41 °FLight rain. Mostly cloudy.6 mph87%29.89 "HgN/A
3:50 AM43 °FMostly cloudy.7 mph81%29.89 "HgN/A
3:20 AM41 °FMostly cloudy.6 mph87%29.86 "HgN/A
2:50 AM41 °FClear.7 mph87%29.86 "Hg10 mi
1:50 AM39 °FClear.5 mph93%29.86 "Hg10 mi
1:20 AM39 °FPassing clouds.5 mph87%29.86 "HgN/A
12:50 AM41 °FPassing clouds.6 mph81%29.86 "HgN/A
12:20 AM41 °FPassing clouds.3 mph81%29.83 "HgN/A
11:50 PM
Fri, Apr 29
41 °FPassing clouds.5 mph81%29.83 "HgN/A
11:20 PM41 °FPassing clouds.7 mph81%29.83 "HgN/A
10:50 PM43 °FPassing clouds.3 mph71%29.83 "HgN/A
10:20 PM43 °FPassing clouds.7 mph71%29.80 "HgN/A
9:50 PM43 °FPassing clouds.8 mph71%29.80 "HgN/A
8:50 PM46 °FScattered clouds.14 mph57%29.77 "HgN/A
8:20 PM46 °FScattered clouds.15 mph62%29.77 "HgN/A
7:50 PM46 °FScattered clouds.12 mph62%29.74 "HgN/A
7:20 PM46 °FScattered clouds.20 mph62%29.71 "HgN/A
6:50 PM46 °FBroken clouds.22 mph66%29.71 "HgN/A
6:20 PM46 °FBroken clouds.16 mph66%29.68 "HgN/A
5:50 PM46 °FBroken clouds.18 mph66%29.68 "HgN/A
5:20 PM46 °FBroken clouds.17 mph66%29.65 "HgN/A
4:50 PM46 °FBroken clouds.18 mph66%29.62 "HgN/A
4:20 PM46 °FBroken clouds.15 mph66%29.59 "HgN/A
3:50 PM45 °FDrizzle. Partly sunny.17 mph76%29.56 "HgN/A
3:20 PM43 °FDrizzle. Partly sunny.16 mph76%29.53 "HgN/A
2:50 PM43 °FDrizzle. Broken clouds.16 mph76%29.53 "HgN/A
2:20 PM43 °FDrizzle. Broken clouds.14 mph76%29.50 "HgN/A
1:50 PM41 °FLight rain. Broken clouds.14 mph81%29.50 "HgN/A
12:50 PM39 °FLight rain. Mostly cloudy.10 mph87%29.50 "HgN/A
12:20 PM39 °FDrizzle. Broken clouds.13 mph87%29.50 "HgN/A
11:50 AM39 °FLight rain. Partly sunny.12 mph93%29.50 "HgN/A
11:20 AM39 °FLight rain. Partly sunny.9 mph93%29.50 "HgN/A
10:50 AM41 °FLight rain. Broken clouds.10 mph87%29.50 "HgN/A
10:20 AM41 °FLight rain. Broken clouds.7 mph87%29.50 "HgN/A
9:50 AM41 °FLight rain. Broken clouds.7 mph87%29.53 "HgN/A
9:20 AM41 °FLight rain. Partly sunny.6 mph93%29.53 "HgN/A
8:50 AM41 °FLight rain. Broken clouds.1 mph93%29.56 "HgN/A
8:20 AM43 °FLight rain. Broken clouds.5 mph87%29.59 "HgN/A
7:50 AM41 °FLight rain. Broken clouds.7 mph93%29.62 "HgN/A
7:20 AM41 °FLight rain. Partly sunny.7 mph93%29.62 "HgN/A
6:50 AM43 °FDrizzle. Broken clouds.8 mph81%29.65 "HgN/A
6:20 AM43 °FPartly cloudy.9 mph81%29.68 "HgN/A
5:50 AM43 °FPassing clouds.9 mph71%29.68 "HgN/A
5:20 AM43 °FMostly cloudy.10 mph71%29.68 "HgN/A
Weather by CustomWeather, © 2016

See weather overviewHow to use our weather pages